Year,Month,Day,Hour,Minute,Value (Times are PST for temperature in C)
2015,07,15,00,00,16.50
2015,07,15,00,01,16.50
2015,07,15,00,02,16.50
2015,07,15,00,03,16.50
2015,07,15,00,04,16.50
2015,07,15,00,05,16.50
2015,07,15,00,06,16.50
2015,07,15,00,07,16.60
2015,07,15,00,08,16.60
2015,07,15,00,09,16.60
2015,07,15,00,10,16.60
2015,07,15,00,11,16.60
2015,07,15,00,12,16.60
2015,07,15,00,13,16.60
2015,07,15,00,14,16.70
2015,07,15,00,15,16.70
2015,07,15,00,16,16.70
2015,07,15,00,17,16.70
2015,07,15,00,18,16.70
2015,07,15,00,19,16.70
2015,07,15,00,20,16.70
2015,07,15,00,21,16.70
2015,07,15,00,22,16.80
2015,07,15,00,23,16.80
2015,07,15,00,24,16.80
2015,07,15,00,25,16.80
2015,07,15,00,26,16.80
2015,07,15,00,27,16.80
2015,07,15,00,28,16.80
2015,07,15,00,29,16.80
2015,07,15,00,30,16.90
2015,07,15,00,31,16.90
2015,07,15,00,32,16.90
2015,07,15,00,33,16.90
2015,07,15,00,34,16.90
2015,07,15,00,35,16.90
2015,07,15,00,36,17.00
2015,07,15,00,37,17.00
2015,07,15,00,38,17.00
2015,07,15,00,39,17.10
2015,07,15,00,40,17.10
2015,07,15,00,41,17.10
2015,07,15,00,42,17.10
2015,07,15,00,43,17.10
2015,07,15,00,44,17.10
2015,07,15,00,45,17.20
2015,07,15,00,46,17.20
2015,07,15,00,47,17.20
2015,07,15,00,48,17.20
2015,07,15,00,49,17.20
2015,07,15,00,50,17.20
2015,07,15,00,51,17.20
2015,07,15,00,52,17.10
2015,07,15,00,53,17.20
2015,07,15,00,54,17.10
2015,07,15,00,55,17.10
2015,07,15,00,56,17.10
2015,07,15,00,57,17.10
2015,07,15,00,58,17.10
2015,07,15,00,59,17.10
2015,07,15,01,00,17.00
2015,07,15,01,01,17.00
2015,07,15,01,02,17.00
2015,07,15,01,03,17.00
2015,07,15,01,04,17.00
2015,07,15,01,05,17.00
2015,07,15,01,06,17.00
2015,07,15,01,07,17.00
2015,07,15,01,08,17.00
2015,07,15,01,09,17.00
2015,07,15,01,10,16.90
2015,07,15,01,11,16.90
2015,07,15,01,12,16.90
2015,07,15,01,13,16.90
2015,07,15,01,14,16.90
2015,07,15,01,15,16.80
2015,07,15,01,16,16.80
2015,07,15,01,17,16.80
2015,07,15,01,18,16.80
2015,07,15,01,19,16.80
2015,07,15,01,20,16.80
2015,07,15,01,21,16.70
2015,07,15,01,22,16.70
2015,07,15,01,23,16.70
2015,07,15,01,24,16.70
2015,07,15,01,25,16.60
2015,07,15,01,26,16.60
2015,07,15,01,27,16.60
2015,07,15,01,28,16.50
2015,07,15,01,29,16.50
2015,07,15,01,30,16.40
2015,07,15,01,31,16.40
2015,07,15,01,32,16.40
2015,07,15,01,33,16.30
2015,07,15,01,34,16.30
2015,07,15,01,35,16.30
2015,07,15,01,36,16.30
2015,07,15,01,37,16.20
2015,07,15,01,38,16.20
2015,07,15,01,39,16.20
2015,07,15,01,40,16.10
2015,07,15,01,41,16.10
2015,07,15,01,42,16.10
2015,07,15,01,43,16.10
2015,07,15,01,44,16.00
2015,07,15,01,45,16.00
2015,07,15,01,46,16.00
2015,07,15,01,47,15.90
2015,07,15,01,48,15.90
2015,07,15,01,49,15.90
2015,07,15,01,50,15.90
2015,07,15,01,51,15.90
2015,07,15,01,52,15.90
2015,07,15,01,53,15.80
2015,07,15,01,54,15.80
2015,07,15,01,55,15.80
2015,07,15,01,56,15.80
2015,07,15,01,57,15.80
2015,07,15,01,58,15.70
2015,07,15,01,59,15.70
2015,07,15,02,00,15.70
2015,07,15,02,01,15.70
2015,07,15,02,02,15.70
2015,07,15,02,03,15.70
2015,07,15,02,04,15.60
2015,07,15,02,05,15.60
2015,07,15,02,06,15.60
2015,07,15,02,07,15.60
2015,07,15,02,08,15.60
2015,07,15,02,09,15.60
2015,07,15,02,10,15.60
2015,07,15,02,11,15.60
2015,07,15,02,12,15.60
2015,07,15,02,13,15.50
2015,07,15,02,14,15.50
2015,07,15,02,15,15.50
2015,07,15,02,16,15.50
2015,07,15,02,17,15.50
2015,07,15,02,18,15.50
2015,07,15,02,19,15.40
2015,07,15,02,20,15.40
2015,07,15,02,21,15.40
2015,07,15,02,22,15.40
2015,07,15,02,23,15.40
2015,07,15,02,24,15.50
2015,07,15,02,25,15.50
2015,07,15,02,26,15.50
2015,07,15,02,27,15.50
2015,07,15,02,28,15.50
2015,07,15,02,29,15.60
2015,07,15,02,30,15.60
2015,07,15,02,31,15.60
2015,07,15,02,32,15.50
2015,07,15,02,33,15.50
2015,07,15,02,34,15.50
2015,07,15,02,35,15.50
2015,07,15,02,36,15.50
2015,07,15,02,37,15.40
2015,07,15,02,38,15.40
2015,07,15,02,39,15.40
2015,07,15,02,40,15.30
2015,07,15,02,41,15.30
2015,07,15,02,42,15.30
2015,07,15,02,43,15.30
2015,07,15,02,44,15.20
2015,07,15,02,45,15.20
2015,07,15,02,46,15.20
2015,07,15,02,47,15.20
2015,07,15,02,48,15.10
2015,07,15,02,49,15.10
2015,07,15,02,50,15.10
2015,07,15,02,51,15.10
2015,07,15,02,52,15.00
2015,07,15,02,53,15.00
2015,07,15,02,54,15.00
2015,07,15,02,55,15.00
2015,07,15,02,56,14.90
2015,07,15,02,57,14.90
2015,07,15,02,58,14.90
2015,07,15,02,59,14.90
2015,07,15,03,00,14.90
2015,07,15,03,01,14.90
2015,07,15,03,02,14.90
2015,07,15,03,03,14.90
2015,07,15,03,04,14.80
2015,07,15,03,05,14.80
2015,07,15,03,06,14.80
2015,07,15,03,07,14.80
2015,07,15,03,08,14.80
2015,07,15,03,09,14.70
2015,07,15,03,10,14.70
2015,07,15,03,11,14.70
2015,07,15,03,12,14.70
2015,07,15,03,13,14.70
2015,07,15,03,14,14.70
2015,07,15,03,15,14.70
2015,07,15,03,16,14.70
2015,07,15,03,17,14.70
2015,07,15,03,18,14.70
2015,07,15,03,19,14.70
2015,07,15,03,20,14.70
2015,07,15,03,21,14.70
2015,07,15,03,22,14.60
2015,07,15,03,23,14.60
2015,07,15,03,24,14.60
2015,07,15,03,25,14.60
2015,07,15,03,26,14.60
2015,07,15,03,27,14.60
2015,07,15,03,28,14.60
2015,07,15,03,29,14.60
2015,07,15,03,30,14.60
2015,07,15,03,31,14.60
2015,07,15,03,32,14.60
2015,07,15,03,33,14.60
2015,07,15,03,34,14.50
2015,07,15,03,35,14.50
2015,07,15,03,36,14.50
2015,07,15,03,37,14.50
2015,07,15,03,38,14.40
2015,07,15,03,39,14.40
2015,07,15,03,40,14.40
2015,07,15,03,41,14.40
2015,07,15,03,42,14.40
2015,07,15,03,43,14.40
2015,07,15,03,44,14.30
2015,07,15,03,45,14.30
2015,07,15,03,46,14.30
2015,07,15,03,47,14.30
2015,07,15,03,48,14.30
2015,07,15,03,49,14.30
2015,07,15,03,50,14.20
2015,07,15,03,51,14.20
2015,07,15,03,52,14.20
2015,07,15,03,53,14.20
2015,07,15,03,54,14.20
2015,07,15,03,55,14.20
2015,07,15,03,56,14.20
2015,07,15,03,57,14.20
2015,07,15,03,58,14.20
2015,07,15,03,59,14.20
2015,07,15,04,00,14.10
2015,07,15,04,01,14.10
2015,07,15,04,02,14.10
2015,07,15,04,03,14.10
2015,07,15,04,04,14.10
2015,07,15,04,05,14.10
2015,07,15,04,06,14.10
2015,07,15,04,07,14.10
2015,07,15,04,08,14.10
2015,07,15,04,09,14.10
2015,07,15,04,10,14.10
2015,07,15,04,11,14.10
2015,07,15,04,12,14.10
2015,07,15,04,13,14.10
2015,07,15,04,14,14.10
2015,07,15,04,15,14.10
2015,07,15,04,16,14.00
2015,07,15,04,17,14.00
2015,07,15,04,18,14.00
2015,07,15,04,19,14.00
2015,07,15,04,20,14.00
2015,07,15,04,21,13.90
2015,07,15,04,22,14.00
2015,07,15,04,23,13.90
2015,07,15,04,24,13.90
2015,07,15,04,25,13.90
2015,07,15,04,26,13.90
2015,07,15,04,27,13.90
2015,07,15,04,28,13.90
2015,07,15,04,29,13.90
2015,07,15,04,30,13.90
2015,07,15,04,31,13.90
2015,07,15,04,32,13.90
2015,07,15,04,33,13.90
2015,07,15,04,34,13.90
2015,07,15,04,35,13.90
2015,07,15,04,36,13.90
2015,07,15,04,37,13.90
2015,07,15,04,38,13.90
2015,07,15,04,39,13.90
2015,07,15,04,40,13.90
2015,07,15,04,41,13.90
2015,07,15,04,42,13.90
2015,07,15,04,43,13.90
2015,07,15,04,44,13.90
2015,07,15,04,45,13.90
2015,07,15,04,46,13.90
2015,07,15,04,47,13.90
2015,07,15,04,48,13.90
2015,07,15,04,49,13.90
2015,07,15,04,50,13.90
2015,07,15,04,51,14.00
2015,07,15,04,52,14.00
2015,07,15,04,53,14.00
2015,07,15,04,54,14.00
2015,07,15,04,55,14.00
2015,07,15,04,56,14.00
2015,07,15,04,57,14.10
2015,07,15,04,58,14.10
2015,07,15,04,59,14.10
2015,07,15,05,00,14.10
2015,07,15,05,01,14.10
2015,07,15,05,02,14.20
2015,07,15,05,03,14.20
2015,07,15,05,04,14.20
2015,07,15,05,05,14.20
2015,07,15,05,06,14.20
2015,07,15,05,07,14.30
2015,07,15,05,08,14.30
2015,07,15,05,09,14.30
2015,07,15,05,10,14.40
2015,07,15,05,11,14.50
2015,07,15,05,12,14.50
2015,07,15,05,13,14.60
2015,07,15,05,14,14.60
2015,07,15,05,15,14.70
2015,07,15,05,16,14.70
2015,07,15,05,17,14.70
2015,07,15,05,18,14.80
2015,07,15,05,19,14.80
2015,07,15,05,20,14.80
2015,07,15,05,21,14.90
2015,07,15,05,22,14.90
2015,07,15,05,23,14.90
2015,07,15,05,24,14.90
2015,07,15,05,25,14.90
2015,07,15,05,26,14.90
2015,07,15,05,27,14.90
2015,07,15,05,28,14.90
2015,07,15,05,29,14.90
2015,07,15,05,30,14.90
2015,07,15,05,31,14.90
2015,07,15,05,32,14.90
2015,07,15,05,33,14.90
2015,07,15,05,34,14.90
2015,07,15,05,35,14.90
2015,07,15,05,36,14.90
2015,07,15,05,37,14.90
2015,07,15,05,38,15.00
2015,07,15,05,39,15.00
2015,07,15,05,40,15.00
2015,07,15,05,41,15.00
2015,07,15,05,42,15.00
2015,07,15,05,43,15.00
2015,07,15,05,44,15.00
2015,07,15,05,45,15.00
2015,07,15,05,46,15.00
2015,07,15,05,47,15.00
2015,07,15,05,48,15.00
2015,07,15,05,49,15.00
2015,07,15,05,50,15.00
2015,07,15,05,51,15.00
2015,07,15,05,52,15.00
2015,07,15,05,53,15.00
2015,07,15,05,54,15.00
2015,07,15,05,55,15.00
2015,07,15,05,56,15.00
2015,07,15,05,57,15.00
2015,07,15,05,58,15.10
2015,07,15,05,59,15.10
2015,07,15,06,00,15.10
2015,07,15,06,01,15.10
2015,07,15,06,02,15.10
2015,07,15,06,03,15.10
2015,07,15,06,04,15.10
2015,07,15,06,05,15.20
2015,07,15,06,06,15.20
2015,07,15,06,07,15.20
2015,07,15,06,08,15.20
2015,07,15,06,09,15.30
2015,07,15,06,10,15.30
2015,07,15,06,11,15.30
2015,07,15,06,12,15.30
2015,07,15,06,13,15.30
2015,07,15,06,14,15.30
2015,07,15,06,15,15.30
2015,07,15,06,16,15.30
2015,07,15,06,17,15.30
2015,07,15,06,18,15.30
2015,07,15,06,19,15.30
2015,07,15,06,20,15.30
2015,07,15,06,21,15.30
2015,07,15,06,22,15.40
2015,07,15,06,23,15.40
2015,07,15,06,24,15.40
2015,07,15,06,25,15.40
2015,07,15,06,26,15.40
2015,07,15,06,27,15.50
2015,07,15,06,28,15.50
2015,07,15,06,29,15.50
2015,07,15,06,30,15.60
2015,07,15,06,31,15.60
2015,07,15,06,32,15.60
2015,07,15,06,33,15.60
2015,07,15,06,34,15.60
2015,07,15,06,35,15.60
2015,07,15,06,36,15.60
2015,07,15,06,37,15.70
2015,07,15,06,38,15.70
2015,07,15,06,39,15.70
2015,07,15,06,40,15.70
2015,07,15,06,41,15.70
2015,07,15,06,42,15.80
2015,07,15,06,43,15.80
2015,07,15,06,44,15.80
2015,07,15,06,45,15.80
2015,07,15,06,46,15.80
2015,07,15,06,47,15.80
2015,07,15,06,48,15.90
2015,07,15,06,49,15.90
2015,07,15,06,50,15.90
2015,07,15,06,51,15.90
2015,07,15,06,52,16.00
2015,07,15,06,53,16.00
2015,07,15,06,54,16.00
2015,07,15,06,55,16.10
2015,07,15,06,56,16.10
2015,07,15,06,57,16.20
2015,07,15,06,58,16.20
2015,07,15,06,59,16.20
2015,07,15,07,00,16.30
2015,07,15,07,01,16.30
2015,07,15,07,02,16.30
2015,07,15,07,03,16.30
2015,07,15,07,04,16.30
2015,07,15,07,05,16.30
2015,07,15,07,06,16.30
2015,07,15,07,07,16.30
2015,07,15,07,08,16.40
2015,07,15,07,09,16.40
2015,07,15,07,10,16.40
2015,07,15,07,11,16.40
2015,07,15,07,12,16.40
2015,07,15,07,13,16.40
2015,07,15,07,14,16.40
2015,07,15,07,15,16.40
2015,07,15,07,16,16.50
2015,07,15,07,17,16.50
2015,07,15,07,18,16.50
2015,07,15,07,19,16.50
2015,07,15,07,20,16.50
2015,07,15,07,21,16.50
2015,07,15,07,22,16.50
2015,07,15,07,23,16.50
2015,07,15,07,24,16.50
2015,07,15,07,25,16.60
2015,07,15,07,26,16.60
2015,07,15,07,27,16.60
2015,07,15,07,28,16.60
2015,07,15,07,29,16.70
2015,07,15,07,30,16.70
2015,07,15,07,31,16.70
2015,07,15,07,32,16.70
2015,07,15,07,33,16.70
2015,07,15,07,34,16.80
2015,07,15,07,35,16.80
2015,07,15,07,36,16.80
2015,07,15,07,37,16.80
2015,07,15,07,38,16.80
2015,07,15,07,39,16.80
2015,07,15,07,40,16.90
2015,07,15,07,41,16.90
2015,07,15,07,42,16.90
2015,07,15,07,43,16.90
2015,07,15,07,44,16.90
2015,07,15,07,45,16.90
2015,07,15,07,46,17.00
2015,07,15,07,47,17.00
2015,07,15,07,48,17.00
2015,07,15,07,49,17.00
2015,07,15,07,50,17.00
2015,07,15,07,51,17.10
2015,07,15,07,52,17.10
2015,07,15,07,53,17.10
2015,07,15,07,54,17.20
2015,07,15,07,55,17.20
2015,07,15,07,56,17.20
2015,07,15,07,57,17.30
2015,07,15,07,58,17.30
2015,07,15,07,59,17.30
2015,07,15,08,00,17.30
2015,07,15,08,01,17.40
2015,07,15,08,02,17.40
2015,07,15,08,03,17.40
2015,07,15,08,04,17.40
2015,07,15,08,05,17.50
2015,07,15,08,06,17.50
2015,07,15,08,07,17.60
2015,07,15,08,08,17.60
2015,07,15,08,09,17.60
2015,07,15,08,10,17.60
2015,07,15,08,11,17.70
2015,07,15,08,12,17.70
2015,07,15,08,13,17.70
2015,07,15,08,14,17.70
2015,07,15,08,15,17.80
2015,07,15,08,16,17.80
2015,07,15,08,17,17.80
2015,07,15,08,18,17.80
2015,07,15,08,19,17.80
2015,07,15,08,20,17.80
2015,07,15,08,21,17.90
2015,07,15,08,22,17.90
2015,07,15,08,23,18.00
2015,07,15,08,24,18.00
2015,07,15,08,25,18.00
2015,07,15,08,26,18.10
2015,07,15,08,27,18.10
2015,07,15,08,28,18.10
2015,07,15,08,29,18.10
2015,07,15,08,30,18.20
2015,07,15,08,31,18.20
2015,07,15,08,32,18.20
2015,07,15,08,33,18.30
2015,07,15,08,34,18.30
2015,07,15,08,35,18.30
2015,07,15,08,36,18.40
2015,07,15,08,37,18.40
2015,07,15,08,38,18.40
2015,07,15,08,39,18.40
2015,07,15,08,40,18.40
2015,07,15,08,41,18.40
2015,07,15,08,42,18.40
2015,07,15,08,43,18.50
2015,07,15,08,44,18.50
2015,07,15,08,45,18.50
2015,07,15,08,46,18.50
2015,07,15,08,47,18.50
2015,07,15,08,48,18.50
2015,07,15,08,49,18.50
2015,07,15,08,50,18.50
2015,07,15,08,51,18.60
2015,07,15,08,52,18.60
2015,07,15,08,53,18.60
2015,07,15,08,54,18.60
2015,07,15,08,55,18.60
2015,07,15,08,56,18.60
2015,07,15,08,57,18.70
2015,07,15,08,58,18.70
2015,07,15,08,59,18.70
2015,07,15,09,00,18.60
2015,07,15,09,01,18.60
2015,07,15,09,02,18.60
2015,07,15,09,03,18.60
2015,07,15,09,04,18.70
2015,07,15,09,05,18.70
2015,07,15,09,06,18.70
2015,07,15,09,07,18.70
2015,07,15,09,08,18.80
2015,07,15,09,09,18.80
2015,07,15,09,10,18.70
2015,07,15,09,11,18.70
2015,07,15,09,12,18.70
2015,07,15,09,13,18.70
2015,07,15,09,14,18.60
2015,07,15,09,15,18.60
2015,07,15,09,16,18.60
2015,07,15,09,17,18.60
2015,07,15,09,18,18.60
2015,07,15,09,19,18.60
2015,07,15,09,20,18.70
2015,07,15,09,21,18.70
2015,07,15,09,22,18.70
2015,07,15,09,23,18.70
2015,07,15,09,24,18.70
2015,07,15,09,25,18.80
2015,07,15,09,26,18.80
2015,07,15,09,27,18.80
2015,07,15,09,28,18.80
2015,07,15,09,29,18.80
2015,07,15,09,30,18.80
2015,07,15,09,31,18.80
2015,07,15,09,32,18.80
2015,07,15,09,33,18.80
2015,07,15,09,34,18.80
2015,07,15,09,35,18.90
2015,07,15,09,36,18.90
2015,07,15,09,37,19.00
2015,07,15,09,38,19.00
2015,07,15,09,39,19.10
2015,07,15,09,40,19.10
2015,07,15,09,41,19.10
2015,07,15,09,42,19.20
2015,07,15,09,43,19.20
2015,07,15,09,44,19.20
2015,07,15,09,45,19.30
2015,07,15,09,46,19.30
2015,07,15,09,47,19.30
2015,07,15,09,48,19.40
2015,07,15,09,49,19.40
2015,07,15,09,50,19.50
2015,07,15,09,51,19.60
2015,07,15,09,52,19.60
2015,07,15,09,53,19.70
2015,07,15,09,54,19.80
2015,07,15,09,55,19.80
2015,07,15,09,56,19.90
2015,07,15,09,57,19.90
2015,07,15,09,58,19.90
2015,07,15,09,59,19.90
2015,07,15,10,00,19.90
2015,07,15,10,01,19.90
2015,07,15,10,02,19.90
2015,07,15,10,03,19.90
2015,07,15,10,04,19.90
2015,07,15,10,05,19.90
2015,07,15,10,06,20.00
2015,07,15,10,07,20.00
2015,07,15,10,08,20.00
2015,07,15,10,09,20.00
2015,07,15,10,10,20.00
2015,07,15,10,11,20.10
2015,07,15,10,12,20.10
2015,07,15,10,13,20.10
2015,07,15,10,14,20.10
2015,07,15,10,15,20.10
2015,07,15,10,16,20.10
2015,07,15,10,17,20.10
2015,07,15,10,18,20.20
2015,07,15,10,19,20.30
2015,07,15,10,20,20.30
2015,07,15,10,21,20.40
2015,07,15,10,22,20.40
2015,07,15,10,23,20.50
2015,07,15,10,24,20.50
2015,07,15,10,25,20.60
2015,07,15,10,26,20.70
2015,07,15,10,27,20.80
2015,07,15,10,28,20.90
2015,07,15,10,29,21.00
2015,07,15,10,30,21.00
2015,07,15,10,31,21.10
2015,07,15,10,32,21.10
2015,07,15,10,33,21.10
2015,07,15,10,34,21.10
2015,07,15,10,35,21.00
2015,07,15,10,36,21.00
2015,07,15,10,37,21.00
2015,07,15,10,38,21.00
2015,07,15,10,39,21.00
2015,07,15,10,40,21.00
2015,07,15,10,41,21.10
2015,07,15,10,42,21.10
2015,07,15,10,43,21.20
2015,07,15,10,44,21.30
2015,07,15,10,45,21.30
2015,07,15,10,46,21.30
2015,07,15,10,47,21.20
2015,07,15,10,48,21.20
2015,07,15,10,49,21.20
2015,07,15,10,50,21.20
2015,07,15,10,51,21.10
2015,07,15,10,52,21.10
2015,07,15,10,53,21.00
2015,07,15,10,54,21.00
2015,07,15,10,55,21.00
2015,07,15,10,56,21.00
2015,07,15,10,57,21.00
2015,07,15,10,58,21.00
2015,07,15,10,59,21.00
2015,07,15,11,00,20.90
2015,07,15,11,01,20.90
2015,07,15,11,02,20.90
2015,07,15,11,03,20.90
2015,07,15,11,04,20.90
2015,07,15,11,05,20.90
2015,07,15,11,06,20.90
2015,07,15,11,07,20.90
2015,07,15,11,08,20.90
2015,07,15,11,09,20.90
2015,07,15,11,10,20.90
2015,07,15,11,11,20.90
2015,07,15,11,12,20.90
2015,07,15,11,13,20.90
2015,07,15,11,14,20.90
2015,07,15,11,15,20.90
2015,07,15,11,16,20.90
2015,07,15,11,17,20.90
2015,07,15,11,18,20.90
2015,07,15,11,19,20.90
2015,07,15,11,20,20.80
2015,07,15,11,21,20.80
2015,07,15,11,22,20.70
2015,07,15,11,23,20.60
2015,07,15,11,24,20.60
2015,07,15,11,25,20.50
2015,07,15,11,26,20.50
2015,07,15,11,27,20.40
2015,07,15,11,28,20.40
2015,07,15,11,29,20.30
2015,07,15,11,30,20.40
2015,07,15,11,31,20.30
2015,07,15,11,32,20.30
2015,07,15,11,33,20.40
2015,07,15,11,34,20.40
2015,07,15,11,35,20.50
2015,07,15,11,36,20.60
2015,07,15,11,37,20.60
2015,07,15,11,38,20.70
2015,07,15,11,39,20.80
2015,07,15,11,40,20.80
2015,07,15,11,41,20.80
2015,07,15,11,42,20.80
2015,07,15,11,43,20.80
2015,07,15,11,44,20.80
2015,07,15,11,45,20.90
2015,07,15,11,46,20.90
2015,07,15,11,47,21.00
2015,07,15,11,48,21.10
2015,07,15,11,49,21.20
2015,07,15,11,50,21.20
2015,07,15,11,51,21.20
2015,07,15,11,52,21.20
2015,07,15,11,53,21.20
2015,07,15,11,54,21.10
2015,07,15,11,55,21.10
2015,07,15,11,56,21.00
2015,07,15,11,57,21.00
2015,07,15,11,58,20.90
2015,07,15,11,59,20.90
2015,07,15,12,00,20.90
2015,07,15,12,01,20.80
2015,07,15,12,02,20.80
2015,07,15,12,03,20.80
2015,07,15,12,04,20.80
2015,07,15,12,05,20.70
2015,07,15,12,06,20.70
2015,07,15,12,07,20.60
2015,07,15,12,08,20.60
2015,07,15,12,09,20.60
2015,07,15,12,10,20.50
2015,07,15,12,11,20.50
2015,07,15,12,12,20.40
2015,07,15,12,13,20.40
2015,07,15,12,14,20.40
2015,07,15,12,15,20.40
2015,07,15,12,16,20.50
2015,07,15,12,17,20.50
2015,07,15,12,18,20.60
2015,07,15,12,19,20.60
2015,07,15,12,20,20.70
2015,07,15,12,21,20.80
2015,07,15,12,22,20.80
2015,07,15,12,23,20.80
2015,07,15,12,24,20.80
2015,07,15,12,25,20.80
2015,07,15,12,26,20.90
2015,07,15,12,27,20.90
2015,07,15,12,28,20.90
2015,07,15,12,29,20.90
2015,07,15,12,30,21.00
2015,07,15,12,31,21.10
2015,07,15,12,32,21.20
2015,07,15,12,33,21.20
2015,07,15,12,34,21.30
2015,07,15,12,35,21.30
2015,07,15,12,36,21.30
2015,07,15,12,37,21.40
2015,07,15,12,38,21.40
2015,07,15,12,39,21.40
2015,07,15,12,40,21.40
2015,07,15,12,41,21.50
2015,07,15,12,42,21.50
2015,07,15,12,43,21.50
2015,07,15,12,44,21.40
2015,07,15,12,45,21.40
2015,07,15,12,46,21.30
2015,07,15,12,47,21.30
2015,07,15,12,48,21.30
2015,07,15,12,49,21.30
2015,07,15,12,50,21.30
2015,07,15,12,51,21.30
2015,07,15,12,52,21.20
2015,07,15,12,53,21.20
2015,07,15,12,54,21.10
2015,07,15,12,55,21.10
2015,07,15,12,56,21.10
2015,07,15,12,57,21.10
2015,07,15,12,58,21.10
2015,07,15,12,59,21.20
2015,07,15,13,00,21.30
2015,07,15,13,01,21.30
2015,07,15,13,02,21.40
2015,07,15,13,03,21.50
2015,07,15,13,04,21.50
2015,07,15,13,05,21.60
2015,07,15,13,06,21.60
2015,07,15,13,07,21.70
2015,07,15,13,08,21.80
2015,07,15,13,09,21.80
2015,07,15,13,10,21.90
2015,07,15,13,11,21.90
2015,07,15,13,12,21.90
2015,07,15,13,13,21.90
2015,07,15,13,14,21.90
2015,07,15,13,15,21.90
2015,07,15,13,16,21.90
2015,07,15,13,17,21.90
2015,07,15,13,18,21.80
2015,07,15,13,19,21.80
2015,07,15,13,20,21.70
2015,07,15,13,21,21.70
2015,07,15,13,22,21.60
2015,07,15,13,23,21.70
2015,07,15,13,24,21.70
2015,07,15,13,25,21.80
2015,07,15,13,26,21.80
2015,07,15,13,27,21.90
2015,07,15,13,28,21.90
2015,07,15,13,29,21.90
2015,07,15,13,30,21.80
2015,07,15,13,31,21.80
2015,07,15,13,32,21.80
2015,07,15,13,33,21.80
2015,07,15,13,34,21.80
2015,07,15,13,35,21.80
2015,07,15,13,36,21.90
2015,07,15,13,37,21.90
2015,07,15,13,38,21.90
2015,07,15,13,39,21.90
2015,07,15,13,40,21.80
2015,07,15,13,41,21.90
2015,07,15,13,42,21.90
2015,07,15,13,43,21.90
2015,07,15,13,44,22.00
2015,07,15,13,45,22.00
2015,07,15,13,46,22.00
2015,07,15,13,47,22.00
2015,07,15,13,48,22.10
2015,07,15,13,49,22.00
2015,07,15,13,50,22.10
2015,07,15,13,51,22.10
2015,07,15,13,52,22.10
2015,07,15,13,53,22.00
2015,07,15,13,54,21.90
2015,07,15,13,55,21.90
2015,07,15,13,56,21.90
2015,07,15,13,57,21.90
2015,07,15,13,58,21.90
2015,07,15,13,59,21.90
2015,07,15,14,00,21.80
2015,07,15,14,01,21.80
2015,07,15,14,02,21.70
2015,07,15,14,03,21.60
2015,07,15,14,04,21.50
2015,07,15,14,05,21.50
2015,07,15,14,06,21.40
2015,07,15,14,07,21.40
2015,07,15,14,08,21.30
2015,07,15,14,09,21.30
2015,07,15,14,10,21.30
2015,07,15,14,11,21.30
2015,07,15,14,12,21.30
2015,07,15,14,13,21.20
2015,07,15,14,14,21.10
2015,07,15,14,15,21.00
2015,07,15,14,16,20.90
2015,07,15,14,17,20.80
2015,07,15,14,18,20.70
2015,07,15,14,19,20.60
2015,07,15,14,20,20.50
2015,07,15,14,21,20.30
2015,07,15,14,22,20.20
2015,07,15,14,23,20.10
2015,07,15,14,24,19.90
2015,07,15,14,25,19.70
2015,07,15,14,26,19.60
2015,07,15,14,27,19.40
2015,07,15,14,28,19.30
2015,07,15,14,29,19.20
2015,07,15,14,30,19.10
2015,07,15,14,31,19.00
2015,07,15,14,32,18.90
2015,07,15,14,33,18.80
2015,07,15,14,34,18.80
2015,07,15,14,35,18.70
2015,07,15,14,36,18.60
2015,07,15,14,37,18.50
2015,07,15,14,38,18.50
2015,07,15,14,39,18.40
2015,07,15,14,40,18.40
2015,07,15,14,41,18.30
2015,07,15,14,42,18.30
2015,07,15,14,43,18.30
2015,07,15,14,44,18.30
2015,07,15,14,45,18.30
2015,07,15,14,46,18.20
2015,07,15,14,47,18.20
2015,07,15,14,48,18.10
2015,07,15,14,49,18.10
2015,07,15,14,50,18.00
2015,07,15,14,51,18.00
2015,07,15,14,52,18.00
2015,07,15,14,53,18.00
2015,07,15,14,54,18.00
2015,07,15,14,55,18.10
2015,07,15,14,56,18.10
2015,07,15,14,57,18.10
2015,07,15,14,58,18.10
2015,07,15,14,59,18.10
2015,07,15,15,00,18.10
2015,07,15,15,01,18.10
2015,07,15,15,02,18.10
2015,07,15,15,03,18.10
2015,07,15,15,04,18.10
2015,07,15,15,05,18.10
2015,07,15,15,06,18.10
2015,07,15,15,07,18.10
2015,07,15,15,08,18.10
2015,07,15,15,09,18.10
2015,07,15,15,10,18.20
2015,07,15,15,11,18.20
2015,07,15,15,12,18.30
2015,07,15,15,13,18.30
2015,07,15,15,14,18.30
2015,07,15,15,15,18.40
2015,07,15,15,16,18.40
2015,07,15,15,17,18.40
2015,07,15,15,18,18.40
2015,07,15,15,19,18.50
2015,07,15,15,20,18.60
2015,07,15,15,21,18.60
2015,07,15,15,22,18.60
2015,07,15,15,23,18.70
2015,07,15,15,24,18.80
2015,07,15,15,25,18.80
2015,07,15,15,26,18.90
2015,07,15,15,27,19.00
2015,07,15,15,28,19.10
2015,07,15,15,29,19.20
2015,07,15,15,30,19.30
2015,07,15,15,31,19.40
2015,07,15,15,32,19.40
2015,07,15,15,33,19.40
2015,07,15,15,34,19.50
2015,07,15,15,35,19.50
2015,07,15,15,36,19.40
2015,07,15,15,37,19.50
2015,07,15,15,38,19.50
2015,07,15,15,39,19.50
2015,07,15,15,40,19.50
2015,07,15,15,41,19.60
2015,07,15,15,42,19.60
2015,07,15,15,43,19.60
2015,07,15,15,44,19.60
2015,07,15,15,45,19.60
2015,07,15,15,46,19.60
2015,07,15,15,47,19.70
2015,07,15,15,48,19.70
2015,07,15,15,49,19.70
2015,07,15,15,50,19.80
2015,07,15,15,51,19.80
2015,07,15,15,52,19.90
2015,07,15,15,53,19.90
2015,07,15,15,54,20.00
2015,07,15,15,55,20.10
2015,07,15,15,56,20.10
2015,07,15,15,57,20.20
2015,07,15,15,58,20.20
2015,07,15,15,59,20.20
2015,07,15,16,00,20.20
2015,07,15,16,01,20.20
2015,07,15,16,02,20.20
2015,07,15,16,03,20.20
2015,07,15,16,04,20.20
2015,07,15,16,05,20.20
2015,07,15,16,06,20.20
2015,07,15,16,07,20.30
2015,07,15,16,08,20.30
2015,07,15,16,09,20.30
2015,07,15,16,10,20.20
2015,07,15,16,11,20.20
2015,07,15,16,12,20.10
2015,07,15,16,13,20.10
2015,07,15,16,14,20.00
2015,07,15,16,15,20.00
2015,07,15,16,16,19.90
2015,07,15,16,17,19.90
2015,07,15,16,18,19.90
2015,07,15,16,19,19.90
2015,07,15,16,20,19.90
2015,07,15,16,21,19.80
2015,07,15,16,22,19.80
2015,07,15,16,23,19.80
2015,07,15,16,24,19.80
2015,07,15,16,25,19.80
2015,07,15,16,26,19.80
2015,07,15,16,27,19.80
2015,07,15,16,28,19.80
2015,07,15,16,29,19.80
2015,07,15,16,30,19.80
2015,07,15,16,31,19.80
2015,07,15,16,32,19.80
2015,07,15,16,33,19.80
2015,07,15,16,34,19.80
2015,07,15,16,35,19.80
2015,07,15,16,36,19.80
2015,07,15,16,37,19.80
2015,07,15,16,38,19.90
2015,07,15,16,39,19.90
2015,07,15,16,40,20.00
2015,07,15,16,41,20.00
2015,07,15,16,42,20.10
2015,07,15,16,43,20.10
2015,07,15,16,44,20.20
2015,07,15,16,45,20.30
2015,07,15,16,46,20.40
2015,07,15,16,47,20.40
2015,07,15,16,48,20.50
2015,07,15,16,49,20.50
2015,07,15,16,50,20.60
2015,07,15,16,51,20.60
2015,07,15,16,52,20.70
2015,07,15,16,53,20.70
2015,07,15,16,54,20.70
2015,07,15,16,55,20.60
2015,07,15,16,56,20.60
2015,07,15,16,57,20.60
2015,07,15,16,58,20.50
2015,07,15,16,59,20.50
2015,07,15,17,00,20.40
2015,07,15,17,01,20.40
2015,07,15,17,02,20.30
2015,07,15,17,03,20.30
2015,07,15,17,04,20.20
2015,07,15,17,05,20.20
2015,07,15,17,06,20.20
2015,07,15,17,07,20.20
2015,07,15,17,08,20.20
2015,07,15,17,09,20.20
2015,07,15,17,10,20.20
2015,07,15,17,11,20.20
2015,07,15,17,12,20.20
2015,07,15,17,13,20.10
2015,07,15,17,14,20.10
2015,07,15,17,15,20.10
2015,07,15,17,16,20.10
2015,07,15,17,17,20.10
2015,07,15,17,18,20.10
2015,07,15,17,19,20.10